Dewpoint
45 45 45 44 44 43 41 33 36 38 40 36 39 35 24 25 18 19 19 19 15 14 16 16 15 15 17 22 20 21 25 24 19 15 21 18 28 33 32 29 28 36 34 27
45 45 45 45 45 41 34 39 36 37 39 34 34 32 30 23 19 17 18 17 16 18 17 21 19 16 20 23 21 27 24 27 20 15 21 21 26 26 28 31 32 28 29 30
44 44 44 44 45 41 36 36 32 35 38 31 25 24 26 28 21 19 19 19 19 19 21 19 20 16 17 20 20 30 29 24 19 16 16 17 15 14 21 28 25 23 27 24
44 44 44 45 45 42 37 41 33 30 32 35 26 23 22 19 18 21 20 19 18 18 23 23 19 17 17 17 25 23 28 23 16 13 12 11 11 10 11 13 17 21 19 16
44 43 44 45 46 43 36 33 37 28 25 23 25 25 27 19 16 19 20 19 19 20 21 18 25 20 18 20 19 21 25 25 21 22 14 10 8 8 8 8 10 10 10 11
45 44 43 45 46 43 40 36 32 30 29 24 24 26 23 20 21 22 20 20 23 22 21 25 22 23 23 23 22 22 27 26 23 19 12 13 16 14 8 8 6 6 6 8
44 45 44 44 46 45 39 34 30 35 31 25 25 20 19 19 19 22 21 21 21 21 26 26 24 23 20 19 19 19 21 22 26 21 18 15 14 10 10 10 9 7 6 3
43 44 44 44 44 45 40 39 34 36 32 24 23 22 21 21 22 21 21 21 23 26 24 27 26 27 28 31 22 19 20 22 25 20 17 15 11 10 9 10 10 10 10 9
42 43 44 44 43 45 42 41 41 39 33 29 23 23 22 24 25 26 24 25 27 27 27 25 19 15 15 13 13 16 17 23 25 23 21 14 10 9 12 13 15 14 13 14
41 41 42 43 43 43 41 40 44 40 34 30 27 27 26 23 23 25 24 25 26 27 31 26 23 19 14 9 7 16 23 27 23 21 20 17 13 13 14 15 17 22 22 23
39 38 41 42 42 42 41 38 43 40 36 33 30 28 26 25 25 27 25 26 28 29 27 25 23 22 18 15 12 11 12 16 19 25 22 16 18 17 20 23 24 23 24 25
39 37 38 39 39 40 40 36 36 41 38 35 33 34 34 30 27 25 28 26 23 28 28 28 28 24 26 21 18 15 13 14 21 19 20 21 18 17 20 23 24 25 27 26
39 39 37 37 37 37 38 33 34 36 36 33 30 28 31 32 33 33 33 31 28 28 29 32 29 23 18 16 13 14 14 15 18 19 18 16 18 21 21 22 26 27 27 28
39 38 38 38 37 37 36 31 33 32 31 29 29 26 25 26 29 31 33 32 31 32 32 33 31 25 23 21 20 20 18 20 21 21 20 19 21 24 25 25 26 27 28 29
39 39 39 39 39 38 38 39 35 32 29 29 30 28 27 27 28 27 30 31 30 33 33 32 28 25 27 27 24 23 19 21 23 23 22 23 24 25 25 25 26 29 32 33
40 39 39 39 39 39 40 34 39 38 35 34 27 30 27 27 27 27 28 28 30 34 33 30 27 27 28 28 19 18 18 20 22 22 23 23 24 24 27 30 32 31 30 30
38 38 38 39 39 37 35 32 38 39 39 33 27 26 27 29 31 32 32 30 36 34 33 31 27 24 32 30 23 21 20 21 23 25 26 29 30 30 31 30 29 31 30 30
36 36 36 35 35 33 30 36 40 40 36 35 26 23 27 29 32 30 33 33 33 32 30 30 28 28 30 26 21 20 20 23 24 24 26 29 29 27 27 29 29 29 30 32
36 35 36 35 34 34 30 36 40 40 36 29 24 20 27 30 31 33 35 34 29 29 30 28 28 28 27 24 22 22 23 21 23 27 28 26 27 29 29 29 30 29 31 32
36 35 32 32 32 36 34 31 34 34 34 33 26 21 21 25 31 32 32 33 28 28 30 30 32 24 23 22 21 22 24 27 29 29 27 29 30 29 30 31 30 30 32 34
32 32 32 34 36 32 31 28 25 24 23 24 25 24 23 23 24 27 28 29 27 23 23 25 23 20 24 22 22 25 28 30 30 29 30 30 30 31 31 32 31 32 33 35
31 30 32 32 30 28 25 23 22 22 16 22 24 26 24 25 27 26 26 23 23 19 30 27 19 28 20 22 23 27 31 31 30 30 30 30 31 32 33 32 32 34 34 33
30 27 24 24 23 22 17 18 18 22 22 26 27 28 28 28 26 27 26 25 22 27 27 19 20 26 23 24 28 30 32 32 32 30 30 32 33 34 34 33 33 34 33 34
23 21 21 18 20 16 15 16 20 30 30 29 28 31 30 30 30 27 27 25 26 22 19 17 29 27 28 29 31 30 31 32 32 33 33 35 34 33 34 34 33 32 33 33
20 17 15 15 16 20 24 24 27 30 30 28 30 29 30 28 28 26 24 25 21 17 18 29 32 28 29 29 31 32 34 35 33 33 34 35 35 34 33 34 34 33 33 33
25 16 16 19 20 26 28 28 27 28 29 29 26 22 23 22 19 17 18 11 10 18 32 31 30 28 28 29 32 34 35 34 34 33 33 34 36 34 34 35 34 33 32 33
18 22 28 25 25 30 30 27 25 26 25 23 20 22 18 21 18 14 16 19 28 33 30 29 26 25 26 27 30 33 34 33 33 33 33 33 33 34 34 33 34 34 33 33
Lifted_Index
12 12 12 12 12 13 12 11 10 10 9 8 8 8 8 8 7 6 6 5 4 3 2 2 1 1 1 1 1 1 1 1 1 0 1 1 2 2 2 1 1 0 0 1
12 12 12 12 12 13 12 11 10 10 9 9 8 8 8 8 7 7 6 5 4 3 3 2 2 1 1 1 1 1 1 1 0 0 0 1 2 3 3 3 2 1 1 1
12 12 12 12 12 13 12 11 10 10 9 9 9 9 9 8 8 7 6 6 5 4 3 3 2 2 2 2 1 1 1 1 1 1 1 1 2 3 4 4 3 3 2 2
12 12 12 12 12 13 12 11 11 10 10 9 9 9 9 8 8 7 7 6 5 5 4 3 3 2 2 2 2 1 1 1 1 2 2 2 2 3 3 4 4 4 4 4
12 12 12 12 12 12 12 12 11 10 10 10 9 9 9 9 8 8 7 6 6 5 5 4 4 3 3 3 2 2 2 2 2 2 2 2 2 2 3 3 3 4 5 5
12 12 12 12 12 12 12 11 11 11 10 10 10 9 9 9 8 8 7 7 6 6 5 5 5 4 4 3 3 3 2 2 2 2 1 1 1 2 2 2 2 3 4 4
12 12 12 12 12 12 12 12 11 11 10 10 10 10 9 9 9 8 8 7 7 6 6 5 5 5 5 4 4 3 3 2 2 2 1 1 1 1 1 1 2 2 2 3
12 12 12 12 12 12 12 12 11 11 11 10 10 10 10 9 9 8 8 8 7 7 6 6 5 5 5 5 4 4 3 2 2 2 1 1 0 0 0 1 1 1 1 2
12 12 12 12 12 12 12 12 11 11 11 11 10 10 10 9 8 8 8 8 8 7 7 6 5 4 5 5 4 4 3 2 2 2 1 1 0 0 1 1 1 0 1 1
13 13 13 12 12 12 12 12 12 11 11 11 11 11 10 9 9 8 8 8 8 7 7 6 5 5 5 5 4 4 3 2 2 1 1 1 1 1 1 1 1 0 1 1
14 14 13 13 13 13 13 12 12 12 11 12 12 11 11 10 9 9 8 8 8 7 7 6 5 5 5 4 4 4 3 3 2 1 1 1 2 2 2 2 1 1 1 1
14 14 14 14 14 14 13 13 12 12 12 12 12 12 11 11 10 9 8 8 8 7 7 6 5 5 5 4 4 4 4 3 3 2 2 2 2 3 2 2 2 2 2 2
14 14 14 14 14 14 14 14 13 13 13 12 12 12 12 11 11 10 9 8 8 8 7 6 6 6 5 5 4 4 4 4 4 3 3 3 3 3 3 2 2 2 2 2
13 14 14 14 14 14 14 14 14 13 13 12 11 12 12 12 11 10 9 9 8 8 7 7 6 6 6 5 4 4 5 5 4 4 3 3 3 2 2 2 2 2 2 2
13 13 13 13 13 14 14 13 13 13 13 11 10 11 12 12 11 10 10 9 9 8 7 7 6 6 6 5 4 4 4 4 4 3 3 2 2 2 2 2 2 2 2 3
12 13 13 13 13 13 13 13 12 12 12 11 10 10 11 11 11 10 10 9 9 8 8 7 7 6 6 5 4 4 4 3 3 2 2 2 2 1 1 1 2 2 3 3
12 13 13 13 13 12 12 12 12 12 12 12 10 9 9 10 10 10 9 9 9 8 8 7 7 6 6 5 4 3 3 3 2 2 1 1 1 1 1 2 2 3 4 4
13 13 13 13 13 13 13 12 12 12 12 12 10 9 8 9 9 9 9 8 8 8 8 7 6 6 5 4 3 3 2 2 1 1 1 1 1 1 1 2 3 3 4 4
13 13 13 13 13 12 13 13 12 12 12 11 10 9 8 8 8 7 7 7 7 7 6 6 5 4 4 3 2 2 1 1 1 1 2 2 2 2 2 2 3 3 4 4
12 12 12 12 12 12 12 12 12 12 12 11 10 9 8 8 7 6 6 6 6 5 4 4 4 3 2 2 1 1 1 1 1 2 3 3 3 2 2 2 2 3 4 4
11 11 11 11 11 11 11 11 11 11 10 10 9 9 8 8 7 6 6 5 5 4 3 3 2 1 1 1 0 0 0 1 2 3 3 4 3 2 2 2 2 3 3 4
10 10 10 10 10 10 9 9 9 9 8 8 8 8 7 7 7 6 5 5 4 3 2 2 2 1 0 0 0 0 0 1 2 3 4 4 3 3 3 3 3 3 4 4
10 9 9 9 9 9 8 7 7 6 6 6 6 6 6 6 6 6 5 4 3 2 2 2 1 0 0 0 0 0 0 1 2 3 4 4 3 3 3 3 3 4 4 4
9 8 7 7 8 8 7 6 6 5 5 5 4 5 5 5 5 4 3 3 2 2 2 1 1 0 0 0 -0 -0 1 2 3 3 4 4 3 3 3 3 4 4 4 4
9 8 7 7 8 8 7 6 6 5 4 4 4 4 4 4 3 3 2 2 2 1 1 1 1 1 1 1 0 0 1 2 3 3 4 3 3 3 3 4 4 4 4 4
9 8 8 8 8 7 7 6 6 5 5 4 4 4 3 3 3 2 2 2 1 1 1 1 1 2 2 1 1 1 1 2 3 3 4 3 3 3 3 4 4 4 4 4
9 9 8 8 7 7 6 6 5 5 5 4 4 4 3 3 2 2 2 1 1 1 1 2 2 2 2 2 2 1 1 2 2 3 4 3 3 3 3 4 4 4 4 4